Location: Gazon
(48.1318°N, 1.2708°W)
Time: 22:42:51
(UTC+00:00)

CZ-2C R/B - Pass Details

Date: 18 September 2020
Orbit: 640 x 704 km, 98.4° (Epoch: 24 October)

Event Time Altitude Azimuth Distance (km) Brightness Sun altitude
Rises 19:59:17 0° 20° (NNE) 2,962 7.1 -18.4°
Reaches altitude 10° 20:01:36 10° 28° (NNE) 2,051 6.2 -18.8°
Enters shadow 20:05:31 40° 88° (E) 962 4.1 -19.3°
